Year,Month,Day,Hour,Minute,Value (Times are PST for temperature in C)
2016,09,27,00,00,16.70
2016,09,27,00,01,16.70
2016,09,27,00,02,16.70
2016,09,27,00,03,16.70
2016,09,27,00,04,16.70
2016,09,27,00,05,16.70
2016,09,27,00,06,16.70
2016,09,27,00,07,16.70
2016,09,27,00,08,16.70
2016,09,27,00,09,16.70
2016,09,27,00,10,16.70
2016,09,27,00,11,16.70
2016,09,27,00,12,16.70
2016,09,27,00,13,16.70
2016,09,27,00,14,16.70
2016,09,27,00,15,16.70
2016,09,27,00,16,16.70
2016,09,27,00,17,16.70
2016,09,27,00,18,16.70
2016,09,27,00,19,16.70
2016,09,27,00,20,16.70
2016,09,27,00,21,16.70
2016,09,27,00,22,16.70
2016,09,27,00,23,16.70
2016,09,27,00,24,16.70
2016,09,27,00,25,16.70
2016,09,27,00,26,16.70
2016,09,27,00,27,16.70
2016,09,27,00,28,16.70
2016,09,27,00,29,16.70
2016,09,27,00,30,16.70
2016,09,27,00,31,16.70
2016,09,27,00,32,16.70
2016,09,27,00,33,16.60
2016,09,27,00,34,16.60
2016,09,27,00,35,16.60
2016,09,27,00,36,16.60
2016,09,27,00,37,16.60
2016,09,27,00,38,16.60
2016,09,27,00,39,16.50
2016,09,27,00,40,16.50
2016,09,27,00,41,16.50
2016,09,27,00,42,16.50
2016,09,27,00,43,16.40
2016,09,27,00,44,16.40
2016,09,27,00,45,16.40
2016,09,27,00,46,16.40
2016,09,27,00,47,16.30
2016,09,27,00,48,16.30
2016,09,27,00,49,16.30
2016,09,27,00,50,16.30
2016,09,27,00,51,16.30
2016,09,27,00,52,16.20
2016,09,27,00,53,16.20
2016,09,27,00,54,16.20
2016,09,27,00,55,16.20
2016,09,27,00,56,16.20
2016,09,27,00,57,16.10
2016,09,27,00,58,16.10
2016,09,27,00,59,16.10
2016,09,27,01,00,16.10
2016,09,27,01,01,16.10
2016,09,27,01,02,16.10
2016,09,27,01,03,16.10
2016,09,27,01,04,16.10
2016,09,27,01,05,16.00
2016,09,27,01,06,16.00
2016,09,27,01,07,16.00
2016,09,27,01,08,15.90
2016,09,27,01,09,15.90
2016,09,27,01,10,15.90
2016,09,27,01,11,16.00
2016,09,27,01,12,16.00
2016,09,27,01,13,16.00
2016,09,27,01,14,16.00
2016,09,27,01,15,15.90
2016,09,27,01,16,15.90
2016,09,27,01,17,15.90
2016,09,27,01,18,16.00
2016,09,27,01,19,16.00
2016,09,27,01,20,16.00
2016,09,27,01,21,16.00
2016,09,27,01,22,16.00
2016,09,27,01,23,16.00
2016,09,27,01,24,16.00
2016,09,27,01,25,16.00
2016,09,27,01,26,16.00
2016,09,27,01,27,16.00
2016,09,27,01,28,16.00
2016,09,27,01,29,16.00
2016,09,27,01,30,16.00
2016,09,27,01,31,16.00
2016,09,27,01,32,16.00
2016,09,27,01,33,16.00
2016,09,27,01,34,16.00
2016,09,27,01,35,16.00
2016,09,27,01,36,16.00
2016,09,27,01,37,16.00
2016,09,27,01,38,16.00
2016,09,27,01,39,16.00
2016,09,27,01,40,16.00
2016,09,27,01,41,16.00
2016,09,27,01,42,16.00
2016,09,27,01,43,16.00
2016,09,27,01,44,15.90
2016,09,27,01,45,16.00
2016,09,27,01,46,16.00
2016,09,27,01,47,16.00
2016,09,27,01,48,16.00
2016,09,27,01,49,16.00
2016,09,27,01,50,16.00
2016,09,27,01,51,16.10
2016,09,27,01,52,16.10
2016,09,27,01,53,16.10
2016,09,27,01,54,16.10
2016,09,27,01,55,16.10
2016,09,27,01,56,16.10
2016,09,27,01,57,16.10
2016,09,27,01,58,16.10
2016,09,27,01,59,16.10
2016,09,27,02,00,16.10
2016,09,27,02,01,16.10
2016,09,27,02,02,16.10
2016,09,27,02,03,16.10
2016,09,27,02,04,16.10
2016,09,27,02,05,16.10
2016,09,27,02,06,16.10
2016,09,27,02,07,16.20
2016,09,27,02,08,16.20
2016,09,27,02,09,16.20
2016,09,27,02,10,16.20
2016,09,27,02,11,16.20
2016,09,27,02,12,16.20
2016,09,27,02,13,16.20
2016,09,27,02,14,16.20
2016,09,27,02,15,16.20
2016,09,27,02,16,16.10
2016,09,27,02,17,16.10
2016,09,27,02,18,16.10
2016,09,27,02,19,16.00
2016,09,27,02,20,15.90
2016,09,27,02,21,15.80
2016,09,27,02,22,15.80
2016,09,27,02,23,15.70
2016,09,27,02,24,15.60
2016,09,27,02,25,15.60
2016,09,27,02,26,15.50
2016,09,27,02,27,15.40
2016,09,27,02,28,15.40
2016,09,27,02,29,15.30
2016,09,27,02,30,15.30
2016,09,27,02,31,15.30
2016,09,27,02,32,15.20
2016,09,27,02,33,15.20
2016,09,27,02,34,15.10
2016,09,27,02,35,15.10
2016,09,27,02,36,15.00
2016,09,27,02,37,14.90
2016,09,27,02,38,14.90
2016,09,27,02,39,14.90
2016,09,27,02,40,14.80
2016,09,27,02,41,14.80
2016,09,27,02,42,14.70
2016,09,27,02,43,14.70
2016,09,27,02,44,14.70
2016,09,27,02,45,14.60
2016,09,27,02,46,14.60
2016,09,27,02,47,14.50
2016,09,27,02,48,14.50
2016,09,27,02,49,14.50
2016,09,27,02,50,14.40
2016,09,27,02,51,14.40
2016,09,27,02,52,14.40
2016,09,27,02,53,14.30
2016,09,27,02,54,14.30
2016,09,27,02,55,14.30
2016,09,27,02,56,14.30
2016,09,27,02,57,14.30
2016,09,27,02,58,14.30
2016,09,27,02,59,14.20
2016,09,27,03,00,14.20
2016,09,27,03,01,14.20
2016,09,27,03,02,14.20
2016,09,27,03,03,14.20
2016,09,27,03,04,14.10
2016,09,27,03,05,14.10
2016,09,27,03,06,14.10
2016,09,27,03,07,14.00
2016,09,27,03,08,14.00
2016,09,27,03,09,13.90
2016,09,27,03,10,13.90
2016,09,27,03,11,13.80
2016,09,27,03,12,13.80
2016,09,27,03,13,13.70
2016,09,27,03,14,13.70
2016,09,27,03,15,13.70
2016,09,27,03,16,13.60
2016,09,27,03,17,13.60
2016,09,27,03,18,13.60
2016,09,27,03,19,13.60
2016,09,27,03,20,13.50
2016,09,27,03,21,13.50
2016,09,27,03,22,13.50
2016,09,27,03,23,13.50
2016,09,27,03,24,13.50
2016,09,27,03,25,13.50
2016,09,27,03,26,13.40
2016,09,27,03,27,13.40
2016,09,27,03,28,13.40
2016,09,27,03,29,13.40
2016,09,27,03,30,13.40
2016,09,27,03,31,13.30
2016,09,27,03,32,13.30
2016,09,27,03,33,13.30
2016,09,27,03,34,13.30
2016,09,27,03,35,13.30
2016,09,27,03,36,13.30
2016,09,27,03,37,13.30
2016,09,27,03,38,13.30
2016,09,27,03,39,13.20
2016,09,27,03,40,13.20
2016,09,27,03,41,13.20
2016,09,27,03,42,13.20
2016,09,27,03,43,13.10
2016,09,27,03,44,13.00
2016,09,27,03,45,13.00
2016,09,27,03,46,13.00
2016,09,27,03,47,13.00
2016,09,27,03,48,13.00
2016,09,27,03,49,13.00
2016,09,27,03,50,13.00
2016,09,27,03,51,12.90
2016,09,27,03,52,12.90
2016,09,27,03,53,12.90
2016,09,27,03,54,12.90
2016,09,27,03,55,12.90
2016,09,27,03,56,12.90
2016,09,27,03,57,12.80
2016,09,27,03,58,12.80
2016,09,27,03,59,12.80
2016,09,27,04,00,12.80
2016,09,27,04,01,12.80
2016,09,27,04,02,12.70
2016,09,27,04,03,12.70
2016,09,27,04,04,12.70
2016,09,27,04,05,12.70
2016,09,27,04,06,12.70
2016,09,27,04,07,12.60
2016,09,27,04,08,12.60
2016,09,27,04,09,12.60
2016,09,27,04,10,12.60
2016,09,27,04,11,12.50
2016,09,27,04,12,12.50
2016,09,27,04,13,12.40
2016,09,27,04,14,12.40
2016,09,27,04,15,12.40
2016,09,27,04,16,12.30
2016,09,27,04,17,12.30
2016,09,27,04,18,12.30
2016,09,27,04,19,12.30
2016,09,27,04,20,12.30
2016,09,27,04,21,12.30
2016,09,27,04,22,12.30
2016,09,27,04,23,12.30
2016,09,27,04,24,12.30
2016,09,27,04,25,12.30
2016,09,27,04,26,12.30
2016,09,27,04,27,12.30
2016,09,27,04,28,12.30
2016,09,27,04,29,12.30
2016,09,27,04,30,12.30
2016,09,27,04,31,12.30
2016,09,27,04,32,12.30
2016,09,27,04,33,12.40
2016,09,27,04,34,12.40
2016,09,27,04,35,12.40
2016,09,27,04,36,12.40
2016,09,27,04,37,12.40
2016,09,27,04,38,12.40
2016,09,27,04,39,12.40
2016,09,27,04,40,12.40
2016,09,27,04,41,12.40
2016,09,27,04,42,12.40
2016,09,27,04,43,12.40
2016,09,27,04,44,12.40
2016,09,27,04,45,12.40
2016,09,27,04,46,12.40
2016,09,27,04,47,12.40
2016,09,27,04,48,12.40
2016,09,27,04,49,12.40
2016,09,27,04,50,12.50
2016,09,27,04,51,12.50
2016,09,27,04,52,12.40
2016,09,27,04,53,12.50
2016,09,27,04,54,12.40
2016,09,27,04,55,12.40
2016,09,27,04,56,12.40
2016,09,27,04,57,12.40
2016,09,27,04,58,12.40
2016,09,27,04,59,12.40
2016,09,27,05,00,12.40
2016,09,27,05,01,12.40
2016,09,27,05,02,12.30
2016,09,27,05,03,12.30
2016,09,27,05,04,12.30
2016,09,27,05,05,12.30
2016,09,27,05,06,12.30
2016,09,27,05,07,12.20
2016,09,27,05,08,12.20
2016,09,27,05,09,12.20
2016,09,27,05,10,12.10
2016,09,27,05,11,12.10
2016,09,27,05,12,12.10
2016,09,27,05,13,12.10
2016,09,27,05,14,12.10
2016,09,27,05,15,12.10
2016,09,27,05,16,12.00
2016,09,27,05,17,12.00
2016,09,27,05,18,12.00
2016,09,27,05,19,12.00
2016,09,27,05,20,12.00
2016,09,27,05,21,12.00
2016,09,27,05,22,11.90
2016,09,27,05,23,11.90
2016,09,27,05,24,11.90
2016,09,27,05,25,11.90
2016,09,27,05,26,11.80
2016,09,27,05,27,11.80
2016,09,27,05,28,11.80
2016,09,27,05,29,11.80
2016,09,27,05,30,11.70
2016,09,27,05,31,11.70
2016,09,27,05,32,11.70
2016,09,27,05,33,11.80
2016,09,27,05,34,11.80
2016,09,27,05,35,11.80
2016,09,27,05,36,11.80
2016,09,27,05,37,11.80
2016,09,27,05,38,11.80
2016,09,27,05,39,11.80
2016,09,27,05,40,11.80
2016,09,27,05,41,11.80
2016,09,27,05,42,11.90
2016,09,27,05,43,11.90
2016,09,27,05,44,11.80
2016,09,27,05,45,11.90
2016,09,27,05,46,11.80
2016,09,27,05,47,11.80
2016,09,27,05,48,11.80
2016,09,27,05,49,11.80
2016,09,27,05,50,11.80
2016,09,27,05,51,11.80
2016,09,27,05,52,11.80
2016,09,27,05,53,11.80
2016,09,27,05,54,11.80
2016,09,27,05,55,11.90
2016,09,27,05,56,11.90
2016,09,27,05,57,11.90
2016,09,27,05,58,11.90
2016,09,27,05,59,11.90
2016,09,27,06,00,11.90
2016,09,27,06,01,11.90
2016,09,27,06,02,11.90
2016,09,27,06,03,11.90
2016,09,27,06,04,11.90
2016,09,27,06,05,12.00
2016,09,27,06,06,12.00
2016,09,27,06,07,12.10
2016,09,27,06,08,12.10
2016,09,27,06,09,12.10
2016,09,27,06,10,12.20
2016,09,27,06,11,12.20
2016,09,27,06,12,12.20
2016,09,27,06,13,12.20
2016,09,27,06,14,12.20
2016,09,27,06,15,12.20
2016,09,27,06,16,12.20
2016,09,27,06,17,12.20
2016,09,27,06,18,12.10
2016,09,27,06,19,12.10
2016,09,27,06,20,12.10
2016,09,27,06,21,12.10
2016,09,27,06,22,12.00
2016,09,27,06,23,12.00
2016,09,27,06,24,11.90
2016,09,27,06,25,11.90
2016,09,27,06,26,11.90
2016,09,27,06,27,11.80
2016,09,27,06,28,11.80
2016,09,27,06,29,11.80
2016,09,27,06,30,11.80
2016,09,27,06,31,11.80
2016,09,27,06,32,11.80
2016,09,27,06,33,11.80
2016,09,27,06,34,11.80
2016,09,27,06,35,11.70
2016,09,27,06,36,11.70
2016,09,27,06,37,11.70
2016,09,27,06,38,11.70
2016,09,27,06,39,11.70
2016,09,27,06,40,11.70
2016,09,27,06,41,11.70
2016,09,27,06,42,11.70
2016,09,27,06,43,11.70
2016,09,27,06,44,11.70
2016,09,27,06,45,11.70
2016,09,27,06,46,11.70
2016,09,27,06,47,11.70
2016,09,27,06,48,11.70
2016,09,27,06,49,11.70
2016,09,27,06,50,11.70
2016,09,27,06,51,11.70
2016,09,27,06,52,11.70
2016,09,27,06,53,11.70
2016,09,27,06,54,11.70
2016,09,27,06,55,11.70
2016,09,27,06,56,11.70
2016,09,27,06,57,11.70
2016,09,27,06,58,11.70
2016,09,27,06,59,11.70
2016,09,27,07,00,11.70
2016,09,27,07,01,11.70
2016,09,27,07,02,11.70
2016,09,27,07,03,11.70
2016,09,27,07,04,11.70
2016,09,27,07,05,11.70
2016,09,27,07,06,11.70
2016,09,27,07,07,11.70
2016,09,27,07,08,11.70
2016,09,27,07,09,11.70
2016,09,27,07,10,11.70
2016,09,27,07,11,11.70
2016,09,27,07,12,11.70
2016,09,27,07,13,11.70
2016,09,27,07,14,11.70
2016,09,27,07,15,11.70
2016,09,27,07,16,11.70
2016,09,27,07,17,11.70
2016,09,27,07,18,11.70
2016,09,27,07,19,11.70
2016,09,27,07,20,11.70
2016,09,27,07,21,11.70
2016,09,27,07,22,11.70
2016,09,27,07,23,11.70
2016,09,27,07,24,11.80
2016,09,27,07,25,11.80
2016,09,27,07,26,11.80
2016,09,27,07,27,11.90
2016,09,27,07,28,11.90
2016,09,27,07,29,11.90
2016,09,27,07,30,12.00
2016,09,27,07,31,12.00
2016,09,27,07,32,12.00
2016,09,27,07,33,12.00
2016,09,27,07,34,12.00
2016,09,27,07,35,12.00
2016,09,27,07,36,12.00
2016,09,27,07,37,12.00
2016,09,27,07,38,12.00
2016,09,27,07,39,12.00
2016,09,27,07,40,12.00
2016,09,27,07,41,12.10
2016,09,27,07,42,12.10
2016,09,27,07,43,12.10
2016,09,27,07,44,12.10
2016,09,27,07,45,12.10
2016,09,27,07,46,12.10
2016,09,27,07,47,12.10
2016,09,27,07,48,12.10
2016,09,27,07,49,12.20
2016,09,27,07,50,12.20
2016,09,27,07,51,12.20
2016,09,27,07,52,12.10
2016,09,27,07,53,12.10
2016,09,27,07,54,12.10
2016,09,27,07,55,12.10
2016,09,27,07,56,12.00
2016,09,27,07,57,12.00
2016,09,27,07,58,11.90
2016,09,27,07,59,11.80
2016,09,27,08,00,11.80
2016,09,27,08,01,11.70
2016,09,27,08,02,11.70
2016,09,27,08,03,11.70
2016,09,27,08,04,11.60
2016,09,27,08,05,11.60
2016,09,27,08,06,11.50
2016,09,27,08,07,11.50
2016,09,27,08,08,11.50
2016,09,27,08,09,11.40
2016,09,27,08,10,11.40
2016,09,27,08,11,11.40
2016,09,27,08,12,11.40
2016,09,27,08,13,11.40
2016,09,27,08,14,11.40
2016,09,27,08,15,11.40
2016,09,27,08,16,11.40
2016,09,27,08,17,11.40
2016,09,27,08,18,11.40
2016,09,27,08,19,11.40
2016,09,27,08,20,11.40
2016,09,27,08,21,11.40
2016,09,27,08,22,11.40
2016,09,27,08,23,11.40
2016,09,27,08,24,11.40
2016,09,27,08,25,11.40
2016,09,27,08,26,11.40
2016,09,27,08,27,11.40
2016,09,27,08,28,11.40
2016,09,27,08,29,11.40
2016,09,27,08,30,11.50
2016,09,27,08,31,11.50
2016,09,27,08,32,11.50
2016,09,27,08,33,11.50
2016,09,27,08,34,11.60
2016,09,27,08,35,11.60
2016,09,27,08,36,11.60
2016,09,27,08,37,11.60
2016,09,27,08,38,11.60
2016,09,27,08,39,11.60
2016,09,27,08,40,11.60
2016,09,27,08,41,11.60
2016,09,27,08,42,11.60
2016,09,27,08,43,11.60
2016,09,27,08,44,11.60
2016,09,27,08,45,11.70
2016,09,27,08,46,11.70
2016,09,27,08,47,11.70
2016,09,27,08,48,11.70
2016,09,27,08,49,11.70
2016,09,27,08,50,11.70
2016,09,27,08,51,11.60
2016,09,27,08,52,11.60
2016,09,27,08,53,11.60
2016,09,27,08,54,11.60
2016,09,27,08,55,11.60
2016,09,27,08,56,11.60
2016,09,27,08,57,11.60
2016,09,27,08,58,11.50
2016,09,27,08,59,11.50
2016,09,27,09,00,11.60
2016,09,27,09,01,11.60
2016,09,27,09,02,11.60
2016,09,27,09,03,11.60
2016,09,27,09,04,11.60
2016,09,27,09,05,11.60
2016,09,27,09,06,11.60
2016,09,27,09,07,11.60
2016,09,27,09,08,11.60
2016,09,27,09,09,11.60
2016,09,27,09,10,11.60
2016,09,27,09,11,11.60
2016,09,27,09,12,11.60
2016,09,27,09,13,11.60
2016,09,27,09,14,11.60
2016,09,27,09,15,11.60
2016,09,27,09,16,11.70
2016,09,27,09,17,11.70
2016,09,27,09,18,11.60
2016,09,27,09,19,11.60
2016,09,27,09,20,11.60
2016,09,27,09,21,11.60
2016,09,27,09,22,11.60
2016,09,27,09,23,11.60
2016,09,27,09,24,11.70
2016,09,27,09,25,11.70
2016,09,27,09,26,11.70
2016,09,27,09,27,11.80
2016,09,27,09,28,11.80
2016,09,27,09,29,11.80
2016,09,27,09,30,11.80
2016,09,27,09,31,11.90
2016,09,27,09,32,11.80
2016,09,27,09,33,11.80
2016,09,27,09,34,11.80
2016,09,27,09,35,11.80
2016,09,27,09,36,11.80
2016,09,27,09,37,11.80
2016,09,27,09,38,11.80
2016,09,27,09,39,11.80
2016,09,27,09,40,11.80
2016,09,27,09,41,11.80
2016,09,27,09,42,11.80
2016,09,27,09,43,11.80
2016,09,27,09,44,11.90
2016,09,27,09,45,11.90
2016,09,27,09,46,11.90
2016,09,27,09,47,11.90
2016,09,27,09,48,11.90
2016,09,27,09,49,11.90
2016,09,27,09,50,11.90
2016,09,27,09,51,11.90
2016,09,27,09,52,11.90
2016,09,27,09,53,11.90
2016,09,27,09,54,11.90
2016,09,27,09,55,11.90
2016,09,27,09,56,11.90
2016,09,27,09,57,11.90
2016,09,27,09,58,11.90
2016,09,27,09,59,11.90
2016,09,27,10,00,11.90
2016,09,27,10,01,11.90
2016,09,27,10,02,11.90
2016,09,27,10,03,11.90
2016,09,27,10,04,12.00
2016,09,27,10,05,12.00
2016,09,27,10,06,12.00
2016,09,27,10,07,12.00
2016,09,27,10,08,12.00
2016,09,27,10,09,12.10
2016,09,27,10,10,12.10
2016,09,27,10,11,12.10
2016,09,27,10,12,12.20
2016,09,27,10,13,12.30
2016,09,27,10,14,12.40
2016,09,27,10,15,12.50
2016,09,27,10,16,12.60
2016,09,27,10,17,12.70
2016,09,27,10,18,12.80
2016,09,27,10,19,12.80
2016,09,27,10,20,12.90
2016,09,27,10,21,13.00
2016,09,27,10,22,13.10
2016,09,27,10,23,13.20
2016,09,27,10,24,13.20
2016,09,27,10,25,13.30
2016,09,27,10,26,13.40
2016,09,27,10,27,13.40
2016,09,27,10,28,13.40
2016,09,27,10,29,13.50
2016,09,27,10,30,13.60
2016,09,27,10,31,13.60
2016,09,27,10,32,13.60
2016,09,27,10,33,13.60
2016,09,27,10,34,13.60
2016,09,27,10,35,13.60
2016,09,27,10,36,13.70
2016,09,27,10,37,13.70
2016,09,27,10,38,13.70
2016,09,27,10,39,13.80
2016,09,27,10,40,13.80
2016,09,27,10,41,13.80
2016,09,27,10,42,13.90
2016,09,27,10,43,13.90
2016,09,27,10,44,13.90
2016,09,27,10,45,13.90
2016,09,27,10,46,13.90
2016,09,27,10,47,13.90
2016,09,27,10,48,13.90
2016,09,27,10,49,13.90
2016,09,27,10,50,13.90
2016,09,27,10,51,13.80
2016,09,27,10,52,13.80
2016,09,27,10,53,13.80
2016,09,27,10,54,13.70
2016,09,27,10,55,13.70
2016,09,27,10,56,13.70
2016,09,27,10,57,13.70
2016,09,27,10,58,13.70
2016,09,27,10,59,13.70
2016,09,27,11,00,13.80
2016,09,27,11,01,13.80
2016,09,27,11,02,13.80
2016,09,27,11,03,13.80
2016,09,27,11,04,13.80
2016,09,27,11,05,13.90
2016,09,27,11,06,13.90
2016,09,27,11,07,13.90
2016,09,27,11,08,14.00
2016,09,27,11,09,14.00
2016,09,27,11,10,14.00
2016,09,27,11,11,14.10
2016,09,27,11,12,14.10
2016,09,27,11,13,14.10
2016,09,27,11,14,14.10
2016,09,27,11,15,14.20
2016,09,27,11,16,14.20
2016,09,27,11,17,14.20
2016,09,27,11,18,14.20
2016,09,27,11,19,14.20
2016,09,27,11,20,14.30
2016,09,27,11,21,14.30
2016,09,27,11,22,14.30
2016,09,27,11,23,14.40
2016,09,27,11,24,14.40
2016,09,27,11,25,14.50
2016,09,27,11,26,14.50
2016,09,27,11,27,14.40
2016,09,27,11,28,14.40
2016,09,27,11,29,14.40
2016,09,27,11,30,14.30
2016,09,27,11,31,14.30
2016,09,27,11,32,14.20
2016,09,27,11,33,14.20
2016,09,27,11,34,14.20
2016,09,27,11,35,14.20
2016,09,27,11,36,14.20
2016,09,27,11,37,14.10
2016,09,27,11,38,14.10
2016,09,27,11,39,14.10
2016,09,27,11,40,14.10
2016,09,27,11,41,14.10
2016,09,27,11,42,14.20
2016,09,27,11,43,14.20
2016,09,27,11,44,14.20
2016,09,27,11,45,14.20
2016,09,27,11,46,14.20
2016,09,27,11,47,14.20
2016,09,27,11,48,14.30
2016,09,27,11,49,14.30
2016,09,27,11,50,14.40
2016,09,27,11,51,14.40
2016,09,27,11,52,14.50
2016,09,27,11,53,14.50
2016,09,27,11,54,14.60
2016,09,27,11,55,14.50
2016,09,27,11,56,14.50
2016,09,27,11,57,14.50
2016,09,27,11,58,14.40
2016,09,27,11,59,14.40
2016,09,27,12,00,14.50
2016,09,27,12,01,14.50
2016,09,27,12,02,14.50
2016,09,27,12,03,14.50
2016,09,27,12,04,14.40
2016,09,27,12,05,14.40
2016,09,27,12,06,14.40
2016,09,27,12,07,14.40
2016,09,27,12,08,14.40
2016,09,27,12,09,14.40
2016,09,27,12,10,14.40
2016,09,27,12,11,14.50
2016,09,27,12,12,14.50
2016,09,27,12,13,14.60
2016,09,27,12,14,14.60
2016,09,27,12,15,14.60
2016,09,27,12,16,14.70
2016,09,27,12,17,14.70
2016,09,27,12,18,14.60
2016,09,27,12,19,14.60
2016,09,27,12,20,14.60
2016,09,27,12,21,14.60
2016,09,27,12,22,14.60
2016,09,27,12,23,14.50
2016,09,27,12,24,14.50
2016,09,27,12,25,14.60
2016,09,27,12,26,14.60
2016,09,27,12,27,14.60
2016,09,27,12,28,14.70
2016,09,27,12,29,14.70
2016,09,27,12,30,14.70
2016,09,27,12,31,14.80
2016,09,27,12,32,14.80
2016,09,27,12,33,14.80
2016,09,27,12,34,14.80
2016,09,27,12,35,14.90
2016,09,27,12,36,14.90
2016,09,27,12,37,15.00
2016,09,27,12,38,15.00
2016,09,27,12,39,15.10
2016,09,27,12,40,15.00
2016,09,27,12,41,15.00
2016,09,27,12,42,15.10
2016,09,27,12,43,15.00
2016,09,27,12,44,15.00
2016,09,27,12,45,15.00
2016,09,27,12,46,15.00
2016,09,27,12,47,14.90
2016,09,27,12,48,14.90
2016,09,27,12,49,14.90
2016,09,27,12,50,14.90
2016,09,27,12,51,14.90
2016,09,27,12,52,15.00
2016,09,27,12,53,15.00
2016,09,27,12,54,15.10
2016,09,27,12,55,15.10
2016,09,27,12,56,15.20
2016,09,27,12,57,15.30
2016,09,27,12,58,15.30
2016,09,27,12,59,15.30
2016,09,27,13,00,15.30
2016,09,27,13,01,15.30
2016,09,27,13,02,15.30
2016,09,27,13,03,15.40
2016,09,27,13,04,15.40
2016,09,27,13,05,15.50
2016,09,27,13,06,15.60
2016,09,27,13,07,15.60
2016,09,27,13,08,15.70
2016,09,27,13,09,15.70
2016,09,27,13,10,15.80
2016,09,27,13,11,15.80
2016,09,27,13,12,15.80
2016,09,27,13,13,15.80
2016,09,27,13,14,15.80
2016,09,27,13,15,15.80
2016,09,27,13,16,15.80
2016,09,27,13,17,15.80
2016,09,27,13,18,15.80
2016,09,27,13,19,15.80
2016,09,27,13,20,15.80
2016,09,27,13,21,15.80
2016,09,27,13,22,15.90
2016,09,27,13,23,15.90
2016,09,27,13,24,15.90
2016,09,27,13,25,16.00
2016,09,27,13,26,16.00
2016,09,27,13,27,16.10
2016,09,27,13,28,16.10
2016,09,27,13,29,16.10
2016,09,27,13,30,16.10
2016,09,27,13,31,16.20
2016,09,27,13,32,16.20
2016,09,27,13,33,16.20
2016,09,27,13,34,16.20
2016,09,27,13,35,16.20
2016,09,27,13,36,16.30
2016,09,27,13,37,16.30
2016,09,27,13,38,16.30
2016,09,27,13,39,16.30
2016,09,27,13,40,16.30
2016,09,27,13,41,16.40
2016,09,27,13,42,16.40
2016,09,27,13,43,16.40
2016,09,27,13,44,16.50
2016,09,27,13,45,16.50
2016,09,27,13,46,16.50
2016,09,27,13,47,16.50
2016,09,27,13,48,16.50
2016,09,27,13,49,16.50
2016,09,27,13,50,16.60
2016,09,27,13,51,16.60
2016,09,27,13,52,16.60
2016,09,27,13,53,16.60
2016,09,27,13,54,16.70
2016,09,27,13,55,16.70
2016,09,27,13,56,16.70
2016,09,27,13,57,16.70
2016,09,27,13,58,16.80
2016,09,27,13,59,16.80
2016,09,27,14,00,16.80
2016,09,27,14,01,16.90
2016,09,27,14,02,16.90
2016,09,27,14,03,16.90
2016,09,27,14,04,17.00
2016,09,27,14,05,17.00
2016,09,27,14,06,17.00
2016,09,27,14,07,17.00
2016,09,27,14,08,17.10
2016,09,27,14,09,17.10
2016,09,27,14,10,17.10
2016,09,27,14,11,17.10
2016,09,27,14,12,17.10
2016,09,27,14,13,17.10
2016,09,27,14,14,17.10
2016,09,27,14,15,17.00
2016,09,27,14,16,17.00
2016,09,27,14,17,16.90
2016,09,27,14,18,17.00
2016,09,27,14,19,17.00
2016,09,27,14,20,16.90
2016,09,27,14,21,16.90
2016,09,27,14,22,16.90
2016,09,27,14,23,16.90
2016,09,27,14,24,16.90
2016,09,27,14,25,16.90
2016,09,27,14,26,16.80
2016,09,27,14,27,16.80
2016,09,27,14,28,16.80
2016,09,27,14,29,16.80
2016,09,27,14,30,16.80
2016,09,27,14,31,16.80
2016,09,27,14,32,16.80
2016,09,27,14,33,16.70
2016,09,27,14,34,16.70
2016,09,27,14,35,16.70
2016,09,27,14,36,16.70
2016,09,27,14,37,16.70
2016,09,27,14,38,16.70
2016,09,27,14,39,16.60
2016,09,27,14,40,16.70
2016,09,27,14,41,16.70
2016,09,27,14,42,16.70
2016,09,27,14,43,16.70
2016,09,27,14,44,16.70
2016,09,27,14,45,16.70
2016,09,27,14,46,16.80
2016,09,27,14,47,16.80
2016,09,27,14,48,16.80
2016,09,27,14,49,16.90
2016,09,27,14,50,16.90
2016,09,27,14,51,16.90
2016,09,27,14,52,17.00
2016,09,27,14,53,17.00
2016,09,27,14,54,17.00
2016,09,27,14,55,17.00
2016,09,27,14,56,17.00
2016,09,27,14,57,17.00
2016,09,27,14,58,16.90
2016,09,27,14,59,16.90
2016,09,27,15,00,16.90
2016,09,27,15,01,16.90
2016,09,27,15,02,16.90
2016,09,27,15,03,16.90
2016,09,27,15,04,16.90
2016,09,27,15,05,16.90
2016,09,27,15,06,16.90
2016,09,27,15,07,16.90
2016,09,27,15,08,16.90
2016,09,27,15,09,16.90
2016,09,27,15,10,16.90
2016,09,27,15,11,16.90
2016,09,27,15,12,17.00
2016,09,27,15,13,17.00
2016,09,27,15,14,17.00
2016,09,27,15,15,17.00
2016,09,27,15,16,17.10
2016,09,27,15,17,17.10
2016,09,27,15,18,17.10
2016,09,27,15,19,17.10
2016,09,27,15,20,17.10
2016,09,27,15,21,17.10
2016,09,27,15,22,17.10
2016,09,27,15,23,17.10
2016,09,27,15,24,17.10
2016,09,27,15,25,17.10
2016,09,27,15,26,17.10
2016,09,27,15,27,17.10
2016,09,27,15,28,17.10
2016,09,27,15,29,17.10
2016,09,27,15,30,17.10
2016,09,27,15,31,17.10
2016,09,27,15,32,17.10
2016,09,27,15,33,17.10
2016,09,27,15,34,17.10
2016,09,27,15,35,17.10
2016,09,27,15,36,17.10
2016,09,27,15,37,17.20
2016,09,27,15,38,17.20
2016,09,27,15,39,17.20
2016,09,27,15,40,17.30
2016,09,27,15,41,17.30
2016,09,27,15,42,17.30
2016,09,27,15,43,17.40
2016,09,27,15,44,17.40
2016,09,27,15,45,17.50
2016,09,27,15,46,17.50
2016,09,27,15,47,17.60
2016,09,27,15,48,17.60
2016,09,27,15,49,17.70
2016,09,27,15,50,17.70
2016,09,27,15,51,17.70
2016,09,27,15,52,17.70
2016,09,27,15,53,17.70
2016,09,27,15,54,17.70
2016,09,27,15,55,17.70
2016,09,27,15,56,17.70
2016,09,27,15,57,17.70
2016,09,27,15,58,17.70
2016,09,27,15,59,17.70
2016,09,27,16,00,17.70
2016,09,27,16,01,17.80
2016,09,27,16,02,17.80
2016,09,27,16,03,17.80
2016,09,27,16,04,17.80
2016,09,27,16,05,17.80
2016,09,27,16,06,17.90
2016,09,27,16,07,17.90
2016,09,27,16,08,17.90
2016,09,27,16,09,17.90
2016,09,27,16,10,17.90
2016,09,27,16,11,17.90
2016,09,27,16,12,17.90
2016,09,27,16,13,18.00
2016,09,27,16,14,18.00
2016,09,27,16,15,18.00
2016,09,27,16,16,17.90
2016,09,27,16,17,17.90
2016,09,27,16,18,17.90
2016,09,27,16,19,17.80
2016,09,27,16,20,17.80
2016,09,27,16,21,17.80
2016,09,27,16,22,17.80
2016,09,27,16,23,17.80
2016,09,27,16,24,17.80
2016,09,27,16,25,17.90
2016,09,27,16,26,17.90
2016,09,27,16,27,18.00
2016,09,27,16,28,18.00
2016,09,27,16,29,18.00
2016,09,27,16,30,18.00
2016,09,27,16,31,18.00
2016,09,27,16,32,18.00
2016,09,27,16,33,18.00
2016,09,27,16,34,17.90
2016,09,27,16,35,17.90
2016,09,27,16,36,17.90
2016,09,27,16,37,17.80
2016,09,27,16,38,17.80
2016,09,27,16,39,17.80
2016,09,27,16,40,17.80
2016,09,27,16,41,17.80
2016,09,27,16,42,17.70
2016,09,27,16,43,17.70
2016,09,27,16,44,17.70
2016,09,27,16,45,17.70
2016,09,27,16,46,17.70
2016,09,27,16,47,17.70
2016,09,27,16,48,17.70
2016,09,27,16,49,17.70
2016,09,27,16,50,17.70
2016,09,27,16,51,17.70
2016,09,27,16,52,17.80
2016,09,27,16,53,17.70
2016,09,27,16,54,17.70
2016,09,27,16,55,17.70
2016,09,27,16,56,17.70
2016,09,27,16,57,17.70
2016,09,27,16,58,17.70
2016,09,27,16,59,17.70
2016,09,27,17,00,17.70
2016,09,27,17,01,17.80
2016,09,27,17,02,17.80
2016,09,27,17,03,17.80
2016,09,27,17,04,17.80
2016,09,27,17,05,17.90
2016,09,27,17,06,17.90
2016,09,27,17,07,17.90
2016,09,27,17,08,18.00
2016,09,27,17,09,18.00
2016,09,27,17,10,18.10
2016,09,27,17,11,18.10
2016,09,27,17,12,18.10
2016,09,27,17,13,18.20
2016,09,27,17,14,18.20
2016,09,27,17,15,18.20
2016,09,27,17,16,18.20
2016,09,27,17,17,18.20
2016,09,27,17,18,18.20
2016,09,27,17,19,18.20